This demonstration page uses our WeatherBlox Daily Observations layout. Learn more.

Hourly Observations for August 3, 2016

Temp ( °F °C ) Dew Point ( °F °C ) Humidity (%) Winds ( mph kmh ) Pressure ( in mb ) Visibility ( mi km ) Precip ( " mm )
12:15 am 00:15 Clear 74 23.2 69 20.7 86 86 SSE 6 9 29.97 1015 10 16.09344 0 0
12:35 am 00:35 Clear 73 22.8 69 20.8 89 89 SSE 7 11 29.97 1015 10 16.09344 0 0
12:55 am 00:55 Clear 72 22.4 69 20.6 90 90 S 5 7 29.97 1015 10 16.09344 0 0
1:15 am 01:15 Clear 71 21.8 68 20.2 91 91 Calm 29.97 1015 10 16.09344 0 0
1:35 am 01:35 Clear 70 21 68 19.8 93 93 Calm 29.97 1015 7 11.265408 0 0
1:55 am 01:55 Clear 70 21 68 19.8 93 93 N 7 11 29.97 1015 7 11.265408 0 0
2:15 am 02:15 Clear with Mist and Fog 70 21 68 20 94 94 NE 3 6 29.97 1015 5 8.04672 0 0
2:35 am 02:35 Clear with Mist and Fog 69 20.5 67 19.5 94 94 NE 3 6 29.97 1015 5 8.04672 0 0
2:55 am 02:55 Clear with Mist and Fog 69 20.3 67 19.3 94 94 E 5 7 29.94 1014 4 6.437376 0 0
3:15 am 03:15 Clear with Mist and Fog 69 20.5 67 19.7 95 95 Calm 29.94 1014 5 8.04672 0 0
3:35 am 03:35 Clear with Mist and Fog 68 20.2 67 19.3 95 95 SE 5 7 29.94 1014 5 8.04672 0 0
3:55 am 03:55 Clear 68 20.2 67 19.2 94 94 Calm 29.94 1014 7 11.265408 0 0
4:15 am 04:15 Clear with Mist and Fog 68 20.1 66 19.1 94 94 ENE 3 6 29.97 1015 4 6.437376 0 0
4:35 am 04:35 Clear with Mist and Fog 68 20.1 67 19.2 95 95 E 6 9 29.97 1015 3 4.828032 0 0
4:55 am 04:55 Clear with Mist and Fog 68 20.2 67 19.4 95 95 E 6 9 29.94 1014 3 4.828032 0 0
5:15 am 05:15 Clear with Mist and Fog 70 21 68 20.1 95 95 E 6 9 29.94 1014 3 4.828032 0 0
5:35 am 05:35 Mostly Cloudy with Mist and Fog 70 21 68 20.1 95 95 ESE 6 9 29.94 1014 3 4.828032 0 0
5:55 am 05:55 Cloudy with Mist and Fog 71 21.5 69 20.6 95 95 ESE 8 13 29.94 1014 4 6.437376 0 0
6:15 am 06:15 Cloudy with Mist and Fog 71 21.9 70 21 95 95 ESE 5 7 29.94 1014 4 6.437376 0 0
6:35 am 06:35 Cloudy with Mist and Fog 72 22 70 21 94 94 ESE 3 6 29.94 1014 3 4.828032 0 0
6:55 am 06:55 Cloudy with Fog 71 21.7 69 20.8 95 95 SE 6 9 29.94 1014 0.5 0.804672 0 0
7:15 am 07:15 Cloudy with Fog 72 22 70 21.2 95 95 E 3 6 29.94 1014 0.5 0.804672 0 0
7:35 am 07:35 Cloudy with Fog 72 22.1 71 21.4 96 96 SE 8 13 29.94 1014 0.25 0.402336 0 0
7:55 am 07:55 Cloudy with Fog 72 22.2 71 21.5 96 96 SE 9 15 29.94 1014 0 0 0 0
8:15 am 08:15 Cloudy with Fog 72 22.3 71 21.5 95 95 SSE 9 15 29.94 1014 0.5 0.804672 0 0
8:35 am 08:35 Cloudy with Mist and Fog 72 22.3 71 21.5 95 95 SSE 7 11 29.94 1014 1 1.609344 0 0
8:55 am 08:55 Cloudy with Mist and Fog 73 22.5 71 21.7 95 95 S 8 13 29.94 1014 3 4.828032 0 0
9:15 am 09:15 Cloudy with Mist and Fog 73 22.7 71 21.5 93 93 SSE 8 13 29.94 1014 5 8.04672 0 0
9:35 am 09:35 Cloudy 74 23.2 71 21.4 90 90 SSE 6 9 29.94 1014 7 11.265408 0 0
9:55 am 09:55 Cloudy 75 23.7 71 21.6 88 88 SE 8 13 29.91 1013 7 11.265408 0 0
10:15 am 10:15 Cloudy 75 24.1 70 21.1 83 83 SE 7 11 29.91 1013 10 16.09344 0 0
10:35 am 10:35 Cloudy 76 24.6 70 21.2 81 81 SSE 7 11 29.91 1013 10 16.09344 0 0
10:55 am 10:55 Cloudy 78 25.5 70 21.3 78 78 SE 7 11 29.91 1013 10 16.09344 0 0
11:15 am 11:15 Mostly Cloudy 79 26 71 21.4 76 76 S 6 9 29.91 1013 10 16.09344 0 0
11:35 am 11:35 Mostly Cloudy 80 26.4 70 21.3 74 74 SE 8 13 29.91 1013 10 16.09344 0 0
11:55 am 11:55 Partly Cloudy 82 27.6 71 21.8 71 71 SSE 8 13 29.88 1012 10 16.09344 0 0
12:15 pm 12:15 Sunny 82 27.9 71 21.6 69 69 SE 5 7 29.88 1012 10 16.09344 0 0
12:35 pm 12:35 Sunny 83 28.4 71 21.5 66 66 SSE 9 15 29.85 1011 10 16.09344 0 0
12:55 pm 12:55 Sunny 84 29.1 71 21.5 64 64 SE 10 17 29.85 1011 10 16.09344 0 0
1:15 pm 13:15 Sunny 86 30 71 21.4 60 60 S 12 19 29.85 1011 10 16.09344 0 0
1:35 pm 13:35 Sunny 87 30.3 71 21.8 60 60 SSE 12 19 29.85 1011 10 16.09344 0 0
1:55 pm 13:55 Sunny 88 30.9 71 21.7 58 58 SE 13 20 29.8 1009 10 16.09344 0 0
2:15 pm 14:15 Sunny 88 31.3 70 21 54 54 SSE 14 22 29.8 1009 10 16.09344 0 0
2:35 pm 14:35 Sunny 89 31.5 70 20.9 53 53 SE 14 22 29.8 1009 10 16.09344 0 0
2:55 pm 14:55 Sunny 89 31.9 70 21 52 52 SSE 14 22 29.8 1009 10 16.09344 0 0
3:15 pm 15:15 Sunny 90 32.1 69 20.7 51 51 S 14 22 29.8 1009 10 16.09344 0 0
3:35 pm 15:35 Sunny 90 32.4 68 20.2 49 49 SSE 14 22 29.77 1008 10 16.09344 0 0
3:55 pm 15:55 Sunny 91 32.5 69 20.6 49 49 SE 14 22 29.77 1008 10 16.09344 0 0
4:15 pm 16:15 Sunny 91 32.5 69 20.7 50 50 SSE 15 24 29.77 1008 10 16.09344 0 0
4:35 pm 16:35 Sunny 91 32.6 69 20.7 49 49 SE 13 20 29.77 1008 10 16.09344 0 0
4:55 pm 16:55 Sunny 91 32.5 69 20.7 50 50 SSE 13 20 29.74 1007 10 16.09344 0 0
5:15 pm 17:15 Sunny 91 32.8 69 20.7 49 49 SSE 12 19 29.74 1007 10 16.09344 0 0
5:35 pm 17:35 Sunny 91 32.8 69 20.6 49 49 SSE 12 19 29.74 1007 10 16.09344 0 0
5:55 pm 17:55 Sunny 91 32.8 69 20.3 48 48 SE 13 20 29.74 1007 10 16.09344 0 0
6:15 pm 18:15 Sunny 91 32.6 69 20.3 48 48 SE 12 19 29.74 1007 10 16.09344 0 0
6:35 pm 18:35 Sunny 90 32.4 69 20.4 49 49 SE 14 22 29.74 1007 10 16.09344 0 0
6:55 pm 18:55 Sunny 90 32.1 69 20.6 51 51 SE 9 15 29.71 1006 10 16.09344 0 0
7:15 pm 19:15 Sunny 89 31.9 69 20.6 51 51 SE 13 20 29.71 1006 10 16.09344 0 0
7:35 pm 19:35 Sunny 88 31.3 70 21.2 55 55 ESE 10 17 29.71 1006 10 16.09344 0 0
7:55 pm 19:55 Sunny 87 30.7 70 21.2 57 57 SE 9 15 29.71 1006 10 16.09344 0 0
8:15 pm 20:15 Sunny 86 30.2 71 21.4 59 59 SE 8 13 29.71 1006 10 16.09344 0 0
8:35 pm 20:35 Sunny 85 29.5 71 21.5 62 62 SE 8 13 29.71 1006 10 16.09344 0 0
8:55 pm 20:55 Clear 84 28.8 71 21.7 66 66 SE 7 11 29.74 1007 10 16.09344 0 0
9:15 pm 21:15 Clear 83 28.4 72 22 68 68 SE 9 15 29.74 1007 10 16.09344 0 0
9:35 pm 21:35 Clear 82 27.7 72 22.1 72 72 SE 9 15 29.74 1007 10 16.09344 0 0
9:55 pm 21:55 Clear 81 27.2 73 22.5 76 76 SE 9 15 29.74 1007 10 16.09344 0 0
10:15 pm 22:15 Clear 81 27 73 22.5 76 76 SE 9 15 29.74 1007 10 16.09344 0 0
10:35 pm 22:35 Clear 81 27 72 22.2 75 75 SE 10 17 29.74 1007 10 16.09344 0 0
10:55 pm 22:55 Clear 80 26.9 72 22.1 75 75 SE 9 15 29.74 1007 10 16.09344 0 0
11:15 pm 23:15 Clear 79 26.3 72 22 77 77 SE 9 15 29.74 1007 10 16.09344 0 0
11:35 pm 23:35 Clear 79 26.1 71 21.8 77 77 SE 9 15 29.74 1007 10 16.09344 0 0
11:55 pm 23:55 Clear 78 25.4 71 21.6 80 80 SE 8 13 29.77 1008 10 16.09344 0 0

Powered by AerisWeather